Waarnemingen

Advertentie
Mijn weer
Ölands Södra Udde, Zweden (2644): temperatuur & dauwpunt: 12.02.2019 01:00:00 - 18.02.2019 01:00:00 (CET)Ölands Södra Udde, Zweden (2644): windsnelheid & windstoten: 12.02.2019 01:00:00 - 18.02.2019 01:00:00 (CET)Ölands Södra Udde, Zweden (2644): windrichting: 12.02.2019 01:00:00 - 18.02.2019 01:00:00 (CET)Ölands Södra Udde, Zweden (2644): luchtdruk: 12.02.2019 01:00:00 - 18.02.2019 01:00:00 (CET)Ölands Södra Udde, Zweden (2644): zicht: 12.02.2019 01:00:00 - 18.02.2019 01:00:00 (CET)Ölands Södra Udde, Zweden (2644): neerslag: 12.02.2019 01:00:00 - 18.02.2019 01:00:00 (CET)
Datum & Tijd tt [°C] td [°C] ff [km/u] ff [kn] fx [km/u] fx [kn] dd ppp [hPa] vv [km] rr [mm]
18.02.2019 01:00:00 1,6 1,4 0 0 0 0 N 1022,4 2,8 0,0
18.02.2019 00:00:00 1,7 1,4 0 0 0 0 N 1022,4 5 0,0
17.02.2019 23:00:00 2,0 1,6 0 0 14 8 N 1022,3 7 0,0
17.02.2019 22:00:00 2,3 2,0 0 0 18 10 N 1022,5 7 0,0
17.02.2019 21:00:00 2,3 1,9 0 0 18 10 N 1022,3 7 0,0
17.02.2019 20:00:00 2,8 2,1 9 5 19 10 WZW 1022,0 11 0,0
17.02.2019 19:00:00 3,8 2,9 7 4 23 12 W 1022,1 15 0,0
17.02.2019 18:00:00 3,8 2,9 18 10 24 13 WZW 1022,0 14 0,0
17.02.2019 17:00:00 3,5 2,8 16 9 24 13 WZW 1021,7 10 0,0
17.02.2019 16:00:00 4,2 3,0 15 8 24 13 WZW 1021,3 11 0,0
17.02.2019 15:00:00 7,4 5,2 11 6 30 16 WZW 1021,1 25 0,0
17.02.2019 14:00:00 7,3 5,6 15 8 31 17 W 1021,0 16 0,0
17.02.2019 13:00:00 6,9 5,4 23 12 31 17 WZW 1021,1 18 0,0
17.02.2019 12:00:00 6,8 5,3 23 12 29 15 WZW 1021,0 15 0,0
17.02.2019 11:00:00 7,6 6,2 12 6 19 10 ZW 1021,1 9 0,0
17.02.2019 10:00:00 5,0 4,1 0 0 19 10 N 1020,9 8 0,0
17.02.2019 09:00:00 4,3 3,6 12 6 19 10 WZW 1020,8 7 0,0
17.02.2019 08:00:00 3,8 3,2 11 6 15 8 WZW 1020,5 6 0,0
17.02.2019 07:00:00 3,7 3,1 10 5 17 9 WZW 1020,0 4,7 0,0
17.02.2019 06:00:00 3,7 3,1 9 5 17 9 WZW 1019,2 3,8 0,0
17.02.2019 05:00:00 3,7 3,0 8 4 27 14 WZW 1019,1 4,0 0,0
17.02.2019 04:00:00 3,7 3,0 13 7 29 16 W 1018,6 4,3 0,0
17.02.2019 03:00:00 3,9 3,0 22 12 29 16 W 1018,2 4,8 0,0
17.02.2019 02:00:00 4,1 3,1 21 11 29 16 WZW 1018,2 6 0,0
17.02.2019 01:00:00 3,8 2,6 19 10 34 18 W 1017,8 6 0,0
17.02.2019 00:00:00 3,6 2,6 22 12 34 18 WZW 1017,3 6 0,0
16.02.2019 23:00:00 3,7 2,4 27 14 34 18 WZW 1017,4 7 0,0
16.02.2019 22:00:00 3,5 2,3 22 12 33 18 WZW 1017,4 8 0,0
16.02.2019 21:00:00 4,0 2,5 25 14 38 20 WZW 1017,1 10 0,0
16.02.2019 20:00:00 4,3 2,5 27 14 40 21 WZW 1017,1 12 0,0
16.02.2019 19:00:00 3,8 2,5 26 14 40 21 WZW 1016,5 11 0,0
16.02.2019 18:00:00 3,8 2,3 27 15 39 21 WZW 1016,2 14 0,0
16.02.2019 17:00:00 3,8 2,3 25 14 36 19 WZW 1016,2 16 0,0
16.02.2019 16:00:00 4,2 2,4 21 11 34 19 ZW 1016,5 19 0,0
16.02.2019 15:00:00 5,5 3,7 15 8 34 18 ZW 1016,7 19 0,0
16.02.2019 14:00:00 6,2 4,0 19 10 32 18 ZW 1017,7 21 0,0
16.02.2019 13:00:00 6,9 4,7 19 10 33 18 ZW 1018,2 26 0,0
16.02.2019 12:00:00 7,3 4,8 16 9 33 18 ZW 1019,0 19 0,0
16.02.2019 11:00:00 7,1 4,7 14 8 33 18 ZW 1019,4 25 0,0
16.02.2019 10:00:00 6,6 4,3 19 10 31 17 ZW 1019,9 22 0,0
16.02.2019 09:00:00 6,2 3,9 17 9 29 16 ZW 1020,5 23 0,0
16.02.2019 08:00:00 4,8 2,8 16 8 32 17 ZW 1020,9 16 0,0
16.02.2019 07:00:00 3,7 1,6 21 11 32 17 ZW 1021,2 15 0,0
16.02.2019 06:00:00 3,0 1,5 12 6 27 15 ZW 1021,9 8 0,0
16.02.2019 05:00:00 2,9 1,7 15 8 32 17 ZW 1022,5 6 0,0
16.02.2019 04:00:00 3,0 1,8 19 10 32 17 ZW 1023,2 6 0,0
16.02.2019 03:00:00 2,9 1,7 12 6 26 14 ZW 1024,0 8 0,0
16.02.2019 02:00:00 3,0 1,7 16 8 27 14 ZW 1025,0 8 0,0
16.02.2019 01:00:00 3,1 2,1 16 8 29 16 ZW 1025,3 7 0,0
16.02.2019 00:00:00 2,9 2,0 20 11 29 16 ZW 1025,6 7 0,0
15.02.2019 23:00:00 2,7 1,8 15 8 30 16 WZW 1025,8 8 0,0
15.02.2019 22:00:00 2,7 1,7 11 6 30 16 WZW 1026,3 12 0,0
15.02.2019 21:00:00 2,8 1,9 13 7 26 14 WZW 1026,7 12 0,0
15.02.2019 20:00:00 3,2 2,0 10 5 26 14 ZW 1026,9 16 0,0
15.02.2019 19:00:00 2,9 2,2 15 8 27 15 ZW 1027,0 12 0,0
15.02.2019 18:00:00 3,2 2,2 16 8 29 15 ZW 1027,1 24 0,0
15.02.2019 17:00:00 3,2 2,3 16 8 29 15 WZW 1026,9 21 0,0
15.02.2019 16:00:00 4,1 3,1 18 10 27 15 WZW 1027,0 18 0,0
15.02.2019 15:00:00 6,3 4,9 13 7 27 15 WZW 1027,2 15 0,0
15.02.2019 14:00:00 6,4 5,4 16 9 30 16 WZW 1027,9 12 0,0
15.02.2019 13:00:00 5,8 4,9 23 12 30 16 WZW 1028,0 11 0,0
15.02.2019 12:00:00 7,4 6,2 8 4 18 10 ZW 1028,6 21 0,0
15.02.2019 11:00:00 7,2 6,1 6 3 19 11 WZW 1028,9 26 0,0
15.02.2019 10:00:00 5,7 5,0 11 6 19 11 W 1028,5 17 0,0
15.02.2019 09:00:00 4,7 4,1 3 2 19 11 WZW 1028,7 15 0,0
15.02.2019 08:00:00 4,1 3,7 6 3 19 11 W 1028,1 13 0,0
15.02.2019 07:00:00 3,9 3,3 16 9 19 11 W 1027,7 15 0,0
15.02.2019 06:00:00 3,8 3,2 11 6 21 11 W 1027,6 14 0,0
15.02.2019 05:00:00 3,6 2,9 5 3 23 13 W 1027,5 15 0,0
15.02.2019 04:00:00 3,7 2,8 19 10 23 13 W 1027,5 16 0,0
15.02.2019 03:00:00 3,7 2,5 16 8 20 11 WZW 1027,6 18 0,0
15.02.2019 02:00:00 3,2 2,2 10 5 26 14 WZW 1027,6 17 0,0
15.02.2019 01:00:00 4,1 2,6 11 6 26 14 W 1027,5 17 0,0
15.02.2019 00:00:00 4,0 2,7 20 11 25 14 W 1027,5 12 0,0
14.02.2019 23:00:00 4,1 2,9 13 7 25 13 W 1027,6 14 0,0
14.02.2019 22:00:00 4,1 3,1 18 10 31 17 W 1027,5 16 0,0
14.02.2019 21:00:00 3,8 2,9 17 9 34 19 WZW 1027,7 9 0,0
14.02.2019 20:00:00 3,7 3,1 23 12 34 19 WZW 1027,9 4,7 0,0
14.02.2019 19:00:00 4,2 3,3 23 12 35 19 WZW 1028,2 12 0,0
14.02.2019 18:00:00 4,3 3,3 20 11 35 19 WZW 1028,4 15 0,0
14.02.2019 17:00:00 4,9 3,6 25 13 36 19 W 1028,4 14 0,0
14.02.2019 16:00:00 4,5 3,8 22 12 36 19 WZW 1028,4 10 0,0
14.02.2019 15:00:00 5,1 4,2 19 11 31 17 WZW 1028,4 16 0,0
14.02.2019 14:00:00 4,2 3,6 16 9 26 14 WZW 1028,9 8 0,0
14.02.2019 13:00:00 6,1 5,5 17 9 31 17 WZW 1029,5 8 0,0
14.02.2019 12:00:00 5,3 4,7 21 11 31 17 WZW 1029,3 7 0,0
14.02.2019 11:00:00 6,6 5,9 13 7 29 16 WZW 1029,3 38 0,0
14.02.2019 10:00:00 4,7 4,1 19 10 29 16 WZW 1029,4 37 0,0
14.02.2019 09:00:00 4,1 3,8 19 11 27 14 WZW 1029,3 8 0,0
14.02.2019 08:00:00 3,6 3,3 21 11 26 14 ZW 1028,8 9 0,0
14.02.2019 07:00:00 3,9 3,3 16 9 23 12 W 1028,5 19 0,0
14.02.2019 06:00:00 3,7 3,0 15 8 21 11 WZW 1028,2 14 0,0
14.02.2019 05:00:00 3,0 2,4 13 7 27 14 WZW 1028,1 11 0,0
14.02.2019 04:00:00 2,8 2,1 19 10 27 14 W 1027,7 12 0,0
14.02.2019 03:00:00 2,3 1,6 16 9 23 12 WZW 1026,9 10 0,0
14.02.2019 02:00:00 2,7 1,7 12 6 23 12 ZW 1026,2 10 0,0
14.02.2019 01:00:00 2,3 0,4 7 4 26 14 W 1026,0 13 0,0
14.02.2019 00:00:00 3,4 0,8 19 10 26 14 W 1025,2 14 0,0
13.02.2019 23:00:00 3,6 1,2 22 12 29 16 W 1024,6 13 0,0
13.02.2019 22:00:00 3,4 1,6 18 10 29 16 W 1024,3 11 0,0
13.02.2019 21:00:00 3,5 1,9 21 11 34 19 W 1024,0 12 0,0
13.02.2019 20:00:00 4,3 2,0 24 13 35 19 W 1023,3 14 0,0
13.02.2019 19:00:00 4,8 2,0 27 15 37 20 WNW 1022,8 15 0,0
13.02.2019 18:00:00 4,7 1,9 26 14 38 21 W 1022,1 17 0,0
13.02.2019 17:00:00 6,3 2,2 34 18 38 21 W 1021,1 20 0,0
13.02.2019 16:00:00 5,7 2,0 21 11 30 16 WNW 1020,5 25 0,0
13.02.2019 15:00:00 7,8 3,8 23 13 34 18 WNW 1019,7 24 0,0
13.02.2019 14:00:00 - 5,0 26 14 36 20 NW 1019,1 21 0,0
13.02.2019 13:00:00 - 5,1 25 13 47 26 WNW 1018,6 20 0,0
13.02.2019 12:00:00 - 4,9 31 17 48 26 WNW 1018,1 24 0,0
13.02.2019 11:00:00 8,3 4,3 34 19 49 26 WNW 1016,9 23 0,0
13.02.2019 10:00:00 7,3 4,6 39 21 50 27 W 1015,9 23 0,0
13.02.2019 09:00:00 6,7 4,4 38 20 54 29 W 1015,6 24 0,0
13.02.2019 08:00:00 5,8 3,6 41 22 54 29 W 1015,1 31 0,0
13.02.2019 07:00:00 4,7 3,4 26 14 49 26 W 1015,2 46 0,0
13.02.2019 06:00:00 4,0 3,4 36 19 49 26 W 1015,0 14 0,0
13.02.2019 05:00:00 3,4 3,0 35 19 55 30 WZW 1015,5 8 0,0
13.02.2019 04:00:00 2,9 2,5 40 21 56 31 WZW 1016,7 9 0,0
13.02.2019 03:00:00 3,0 2,0 39 21 56 31 WZW 1017,8 21 0,0
13.02.2019 02:00:00 2,0 1,3 35 19 49 26 WZW 1019,1 30 0,1
13.02.2019 01:00:00 1,3 0,9 33 18 49 26 ZW 1021,0 10 0,4
13.02.2019 00:00:00 0,7 0,3 27 15 42 23 WZW 1022,6 10 0,4
12.02.2019 23:00:00 1,9 -2,2 28 15 34 18 WZW 1023,0 50 0,0
12.02.2019 22:00:00 1,8 -2,9 25 14 34 18 W 1023,2 50 0,0
12.02.2019 21:00:00 1,8 -3,8 18 10 29 16 W 1023,4 50 0,0
12.02.2019 20:00:00 2,0 -4,1 18 10 30 16 W 1023,7 50 0,0
12.02.2019 19:00:00 2,0 -3,7 16 9 30 16 W 1023,8 50 0,0
12.02.2019 18:00:00 2,2 -3,5 18 10 36 19 W 1023,6 50 0,0
12.02.2019 17:00:00 2,3 -3,4 24 13 40 21 W 1023,2 50 0,0
12.02.2019 16:00:00 2,7 -3,6 29 16 40 21 WNW 1022,7 50 0,0
12.02.2019 15:00:00 4,5 -0,5 22 12 33 18 WNW 1022,1 50 0,0
12.02.2019 14:00:00 5,8 1,0 15 8 26 14 WNW 1021,7 50 0,0
12.02.2019 13:00:00 5,0 0,4 22 12 35 19 WNW 1021,0 50 0,0
12.02.2019 12:00:00 4,2 -0,4 22 12 43 23 NW 1020,7 50 0,0
12.02.2019 11:00:00 2,9 -1,3 29 16 46 25 NNW 1020,3 50 0,0
12.02.2019 10:00:00 2,2 -1,4 35 19 50 27 NNW 1019,5 50 0,0
12.02.2019 09:00:00 1,7 -1,4 37 20 53 28 NNW 1018,5 47 0,0
12.02.2019 08:00:00 0,4 -2,5 39 21 53 28 NNW 1017,3 50 0,0
12.02.2019 07:00:00 -0,1 -3,1 37 20 51 27 NW 1016,2 50 0,0
12.02.2019 06:00:00 0,0 -3,4 35 19 48 26 NW 1015,2 50 0,0
12.02.2019 05:00:00 0,3 -3,1 35 19 48 26 NW 1014,3 50 0,0
12.02.2019 04:00:00 0,6 -3,1 38 21 48 26 NW 1013,2 50 0,0
12.02.2019 03:00:00 0,5 -3,2 36 20 47 26 NW 1012,3 50 0,0
12.02.2019 02:00:00 0,7 -3,1 36 19 47 25 NW 1011,4 50 0,0
12.02.2019 01:00:00 0,7 -3,2 32 18 42 23 NW 1010,5 50 0,0

tt = temperatuur
td = dauwpunt
ff = windsnelheid
fx = windstoten
dd = windrichting
ppp = luchtdruk
vv = zicht
rr = neerslag

Weerstations in de omgeving